When you browse on this site, cookies collect data to enhance your experience and personalize the content and advertising you see.
Visit our Privacy Policy to learn more. By continuing to use the site, you agree to this use of cookies and data.
  • In Lithuania
  • List of Countries
  • For 7 days
  • Water Temperature
  • Weather Map
  • Weather Widgets
  • user-avatar
    Login

    Hourly Weather Fier

    Today, 15 October, Tuesday

    Time Temperature Precipitation Wind Pressure Humidity
    00:00 +21°C° 0 mm 1 mps 763 mmHg 81%
    01:00 +21°C° 0 mm 1 mps 763 mmHg 83%
    02:00 +20°C° 0 mm 1 mps 763 mmHg 84%
    03:00 +20°C° 0 mm 1 mps 763 mmHg 84%
    04:00 +20°C° 0 mm 1 mps 762 mmHg 85%
    05:00 +20°C° 0 mm 1 mps 762 mmHg 82%
    06:00 +21°C° 0 mm 1 mps 762 mmHg 80%
    07:00 +21°C° 0 mm 1 mps 763 mmHg 77%
    08:00 +23°C° 0 mm 1 mps 762 mmHg 70%
    09:00 +25°C° 0 mm 1 mps 762 mmHg 62%
    10:00 +26°C° 0 mm 1 mps 762 mmHg 55%
    11:00 +27°C° 0 mm 1 mps 762 mmHg 53%
    12:00 +27°C° 0 mm 2 mps 762 mmHg 52%
    13:00 +28°C° 0 mm 3 mps 762 mmHg 50%
    14:00 +27°C° 0 mm 2 mps 761 mmHg 53%
    15:00 +26°C° 0 mm 2 mps 761 mmHg 56%
    16:00 +25°C° 0 mm 1 mps 760 mmHg 59%
    17:00 +24°C° 0 mm 1 mps 761 mmHg 63%
    18:00 +23°C° 0 mm 1 mps 761 mmHg 68%
    19:00 +20°C° 0 mm 0 mps 761 mmHg 73%
    20:00 +19°C° 0 mm 0 mps 761 mmHg 74%
    21:00 +21°C° 0 mm 1 mps 761 mmHg 74%
    22:00 +21°C° 0 mm 1 mps 762 mmHg 75%
    23:00 +21°C° 0 mm 1 mps 762 mmHg 76%

    Tomorrow, 16 October, Wednesday

    Time Temperature Precipitation Wind Pressure Humidity
    00:00 +20°C° 0 mm 1 mps 761 mmHg 78%
    01:00 +20°C° 0 mm 1 mps 761 mmHg 79%
    02:00 +20°C° 0 mm 1 mps 761 mmHg 78%
    03:00 +20°C° 0 mm 1 mps 761 mmHg 78%
    04:00 +19°C° 0 mm 2 mps 761 mmHg 78%
    05:00 +20°C° 0 mm 1 mps 761 mmHg 76%
    06:00 +20°C° 0 mm 1 mps 761 mmHg 73%
    07:00 +21°C° 0 mm 1 mps 761 mmHg 71%
    08:00 +23°C° 0 mm 1 mps 761 mmHg 63%
    09:00 +25°C° 0 mm 1 mps 761 mmHg 55%
    10:00 +26°C° 0 mm 1 mps 761 mmHg 47%
    11:00 +27°C° 0 mm 2 mps 761 mmHg 46%
    12:00 +28°C° 0 mm 2 mps 761 mmHg 45%
    13:00 +28°C° 0 mm 3 mps 760 mmHg 44%
    14:00 +27°C° 0 mm 3 mps 760 mmHg 50%
    15:00 +27°C° 0 mm 3 mps 760 mmHg 56%
    16:00 +26°C° 0 mm 3 mps 760 mmHg 62%
    17:00 +24°C° 0 mm 2 mps 760 mmHg 69%
    18:00 +23°C° 0 mm 1 mps 760 mmHg 76%
    19:00 +22°C° 0 mm 1 mps 761 mmHg 83%
    20:00 +22°C° 0 mm 1 mps 761 mmHg 83%
    21:00 +21°C° 0 mm 1 mps 761 mmHg 83%
    22:00 +21°C° 0 mm 1 mps 761 mmHg 84%
    23:00 +21°C° 0 mm 1 mps 761 mmHg 83%

    Day after tomorrow, 17 October, Thursday

    Time Temperature Precipitation Wind Pressure Humidity
    00:00 +21°C° 0 mm 1 mps 761 mmHg 82%
    01:00 +20°C° 0 mm 1 mps 761 mmHg 81%
    02:00 +20°C° 0 mm 1 mps 761 mmHg 80%
    03:00 +20°C° 0 mm 1 mps 761 mmHg 78%
    04:00 +20°C° 0 mm 1 mps 761 mmHg 77%
    05:00 +20°C° 0 mm 1 mps 761 mmHg 73%
    06:00 +21°C° 0 mm 1 mps 761 mmHg 70%
    07:00 +21°C° 0 mm 1 mps 761 mmHg 67%
    08:00 +23°C° 0 mm 1 mps 761 mmHg 60%
    09:00 +24°C° 0 mm 1 mps 762 mmHg 53%
    10:00 +26°C° 0 mm 1 mps 762 mmHg 47%
    11:00 +27°C° 0 mm 2 mps 761 mmHg 45%
    12:00 +27°C° 0 mm 2 mps 761 mmHg 44%
    13:00 +28°C° 0 mm 3 mps 761 mmHg 43%
    14:00 +27°C° 0 mm 3 mps 761 mmHg 47%
    15:00 +26°C° 0 mm 3 mps 761 mmHg 51%
    16:00 +25°C° 0 mm 3 mps 761 mmHg 55%
    17:00 +24°C° 0 mm 2 mps 761 mmHg 59%
    18:00 +23°C° 0 mm 2 mps 761 mmHg 64%
    19:00 +22°C° 0 mm 1 mps 762 mmHg 69%
    20:00 +21°C° 0 mm 1 mps 762 mmHg 69%
    21:00 +21°C° 0 mm 1 mps 762 mmHg 70%
    22:00 +21°C° 0 mm 1 mps 762 mmHg 70%
    23:00 +20°C° 0 mm 1 mps 762 mmHg 70%

    18 October, Friday

    Time Temperature Precipitation Wind Pressure Humidity
    00:00 +20°C° 0 mm 1 mps 762 mmHg 70%
    01:00 +20°C° 0 mm 1 mps 762 mmHg 70%
    02:00 +20°C° 0 mm 1 mps 762 mmHg 70%
    03:00 +20°C° 0 mm 1 mps 762 mmHg 70%
    04:00 +19°C° 0 mm 1 mps 762 mmHg 71%
    05:00 +20°C° 0 mm 1 mps 762 mmHg 69%
    06:00 +20°C° 0 mm 1 mps 762 mmHg 68%
    07:00 +21°C° 0 mm 1 mps 762 mmHg 67%
    08:00 +22°C° 0 mm 1 mps 762 mmHg 60%
    09:00 +24°C° 0 mm 1 mps 762 mmHg 53%
    10:00 +26°C° 0 mm 1 mps 762 mmHg 47%
    11:00 +26°C° 0 mm 2 mps 762 mmHg 46%
    12:00 +27°C° 0 mm 3 mps 761 mmHg 46%
    13:00 +27°C° 0 mm 3 mps 761 mmHg 45%
    14:00 +26°C° 0 mm 3 mps 761 mmHg 51%
    15:00 +25°C° 0 mm 3 mps 761 mmHg 56%
    16:00 +24°C° 0 mm 3 mps 761 mmHg 62%
    17:00 +23°C° 0 mm 2 mps 761 mmHg 68%
    18:00 +22°C° 0 mm 1 mps 761 mmHg 74%
    19:00 +21°C° 0 mm 1 mps 762 mmHg 80%
    20:00 +21°C° 0 mm 1 mps 762 mmHg 81%
    21:00 +21°C° 0 mm 1 mps 762 mmHg 82%
    22:00 +20°C° 0 mm 1 mps 762 mmHg 82%
    23:00 +20°C° 0 mm 1 mps 762 mmHg 81%

    19 October, Saturday

    Time Temperature Precipitation Wind Pressure Humidity
    00:00 +20°C° 0 mm 1 mps 762 mmHg 81%
    01:00 +20°C° 0 mm 1 mps 762 mmHg 80%
    02:00 +19°C° 0 mm 1 mps 762 mmHg 80%
    03:00 +19°C° 0 mm 1 mps 762 mmHg 80%
    04:00 +19°C° 0 mm 1 mps 761 mmHg 80%
    05:00 +19°C° 0 mm 1 mps 762 mmHg 78%
    06:00 +20°C° 0 mm 1 mps 762 mmHg 76%
    07:00 +20°C° 0 mm 1 mps 762 mmHg 73%
    08:00 +22°C° 0 mm 1 mps 762 mmHg 66%
    09:00 +24°C° 0 mm 1 mps 762 mmHg 59%
    10:00 +25°C° 0 mm 1 mps 762 mmHg 52%
    11:00 +26°C° 0 mm 1 mps 762 mmHg 51%
    12:00 +26°C° 0 mm 2 mps 762 mmHg 49%
    13:00 +27°C° 0 mm 3 mps 761 mmHg 48%
    14:00 +26°C° 0 mm 3 mps 761 mmHg 53%
    15:00 +25°C° 0 mm 3 mps 761 mmHg 57%
    16:00 +24°C° 0 mm 2 mps 761 mmHg 61%
    17:00 +23°C° 0 mm 2 mps 761 mmHg 66%
    18:00 +22°C° 0 mm 1 mps 762 mmHg 71%
    19:00 +19°C° 0 mm 0 mps 762 mmHg 76%
    20:00 +21°C° 0 mm 1 mps 762 mmHg 77%
    21:00 +20°C° 0 mm 1 mps 762 mmHg 78%
    22:00 +20°C° 0 mm 1 mps 762 mmHg 79%
    23:00 +20°C° 0 mm 1 mps 762 mmHg 79%

    20 October, Sunday

    Time Temperature Precipitation Wind Pressure Humidity
    00:00 +20°C° 0 mm 1 mps 762 mmHg 78%
    01:00 +19°C° 0 mm 1 mps 762 mmHg 78%
    02:00 +19°C° 0 mm 1 mps 762 mmHg 77%
    03:00 +19°C° 0 mm 1 mps 762 mmHg 77%
    04:00 +18°C° 0 mm 2 mps 762 mmHg 76%
    05:00 +18°C° 0 mm 2 mps 762 mmHg 73%
    06:00 +18°C° 0 mm 2 mps 762 mmHg 70%
    07:00 +19°C° 0 mm 2 mps 763 mmHg 67%
    08:00 +21°C° 0 mm 2 mps 763 mmHg 60%
    09:00 +24°C° 0 mm 1 mps 763 mmHg 52%
    10:00 +25°C° 0 mm 1 mps 763 mmHg 45%
    11:00 +26°C° 0 mm 2 mps 763 mmHg 43%
    12:00 +27°C° 0 mm 2 mps 763 mmHg 41%
    13:00 +27°C° 0 mm 3 mps 762 mmHg 39%
    14:00 +26°C° 0 mm 3 mps 762 mmHg 44%
    15:00 +26°C° 0 mm 3 mps 762 mmHg 50%
    16:00 +25°C° 0 mm 3 mps 762 mmHg 56%
    17:00 +23°C° 0 mm 2 mps 762 mmHg 62%
    18:00 +21°C° 0 mm 2 mps 762 mmHg 67%
    19:00 +21°C° 0 mm 1 mps 763 mmHg 73%
    20:00 +21°C° 0 mm 1 mps 763 mmHg 73%
    21:00 +20°C° 0 mm 1 mps 763 mmHg 73%
    22:00 +20°C° 0 mm 1 mps 764 mmHg 72%
    23:00 +20°C° 0 mm 1 mps 763 mmHg 71%
    Show more